Location: Edinburgh
(55.9500°N, 3.1600°W)
Time: 20:01:14
(UTC+01:00)

Vanguard 2 Rocket - All Passes

Search period start: 23 October 2017 00:00
Search period end: 01 November 2017 23:00
Orbit: 555 x 3327 km, 32.9° (Epoch: 22 October)

Date Brightness Start Highest point End Pass type
(mag) Time Alt. Az. Time Alt. Az. Time Alt. Az.
23 Oct - 14:00:12 10° S 14:01:44 11° SSE 14:03:25 10° SSE daylight
23 Oct - 16:10:14 10° SSW 16:13:43 13° S 16:17:55 10° SSE daylight
24 Oct - 15:12:09 10° SSW 15:14:35 12° S 15:17:22 10° SSE daylight
